Location: Berlin
(38.3226°N, 75.2177°W)
Time: 05:38:25
(UTC+00:00)

SAR-Lupe-4 - Pass Details

Date: 26 October 2020
Orbit: 481 x 484 km, 98.2° (Epoch: 22 November)

Event Time Altitude Azimuth Distance (km) Brightness Sun altitude
Rises 10:02:43 0° 168° (SSE) 2,533 7.4 -16.0°
Reaches altitude 10° 10:04:46 10° 169° (SSE) 1,657 6.4 -15.6°
Maximum altitude 10:08:20 83° 256° (WSW) 492 3.4 -14.9°
Drops below altitude 10° 10:11:55 10° 346° (NNW) 1,669 6.1 -14.2°
Sets 10:13:59 0° 347° (NNW) 2,553 7.0 -13.8°
